QPF
0.00 0.00 0.00 0.00 0.00 0.00 0.00 0.00 0.00 0.00 0.00 0.01 0.00 0.00 0.00 0.00 0.01 0.01 0.01 0.01 0.01 0.02 0.01 0.01 0.01 0.01 0.01 0.01 0.02 0.02 0.02 0.02 0.01 0.01 0.00 0.01 0.01 0.02 0.02 0.01 0.01 0.00 0.00 0.00
0.01 0.00 0.00 0.00 0.00 0.00 0.00 0.00 0.00 0.00 0.00 0.00 0.00 0.00 0.00 0.00 0.01 0.01 0.01 0.01 0.01 0.02 0.01 0.01 0.01 0.01 0.01 0.02 0.01 0.02 0.01 0.01 0.01 0.01 0.01 0.01 0.01 0.02 0.02 0.02 0.01 0.01 0.00 0.00
0.01 0.00 0.00 0.00 0.00 0.00 0.00 0.00 0.00 0.00 0.00 0.00 0.00 0.00 0.00 0.00 0.00 0.01 0.01 0.01 0.02 0.02 0.01 0.01 0.01 0.01 0.01 0.01 0.01 0.01 0.02 0.02 0.03 0.03 0.03 0.02 0.02 0.02 0.02 0.02 0.02 0.01 0.01 0.01
0.01 0.00 0.00 0.00 0.00 0.00 0.00 0.00 0.00 0.00 0.01 0.00 0.00 0.01 0.00 0.00 0.00 0.00 0.00 0.01 0.01 0.01 0.02 0.02 0.01 0.01 0.02 0.02 0.02 0.02 0.02 0.02 0.03 0.03 0.02 0.02 0.02 0.02 0.02 0.01 0.02 0.02 0.02 0.01
0.01 0.01 0.00 0.00 0.00 0.00 0.00 0.01 0.01 0.01 0.01 0.00 0.00 0.00 0.00 0.00 0.00 0.00 0.00 0.00 0.01 0.01 0.02 0.01 0.01 0.01 0.02 0.03 0.04 0.03 0.02 0.01 0.01 0.01 0.01 0.02 0.03 0.02 0.02 0.01 0.01 0.01 0.02 0.01
0.01 0.01 0.00 0.00 0.00 0.00 0.00 0.01 0.01 0.00 0.01 0.00 0.00 0.01 0.00 0.00 0.00 0.00 0.00 0.00 0.00 0.01 0.01 0.01 0.01 0.01 0.03 0.03 0.02 0.01 0.01 0.00 0.01 0.01 0.01 0.02 0.03 0.02 0.02 0.02 0.01 0.01 0.01 0.01
0.01 0.01 0.00 0.01 0.00 0.00 0.01 0.01 0.01 0.01 0.01 0.00 0.00 0.01 0.00 0.00 0.00 0.00 0.00 0.00 0.00 0.01 0.01 0.01 0.01 0.01 0.02 0.02 0.02 0.02 0.01 0.01 0.01 0.01 0.01 0.02 0.02 0.02 0.03 0.03 0.02 0.02 0.02 0.01
0.01 0.01 0.01 0.01 0.00 0.00 0.00 0.00 0.01 0.01 0.01 0.00 0.01 0.00 0.00 0.00 0.00 0.00 0.00 0.00 0.00 0.01 0.01 0.01 0.00 0.00 0.01 0.01 0.01 0.02 0.01 0.01 0.01 0.01 0.01 0.01 0.02 0.02 0.02 0.03 0.03 0.04 0.04 0.04
0.02 0.03 0.02 0.00 0.00 0.00 0.00 0.00 0.01 0.01 0.01 0.01 0.01 0.00 0.00 0.00 0.00 0.00 0.00 0.00 0.01 0.01 0.01 0.00 0.00 0.00 0.01 0.01 0.01 0.01 0.01 0.01 0.01 0.01 0.02 0.02 0.02 0.02 0.02 0.02 0.03 0.05 0.06 0.05
0.02 0.01 0.00 0.00 0.00 0.00 0.00 0.00 0.01 0.01 0.01 0.00 0.01 0.01 0.01 0.01 0.01 0.00 0.00 0.00 0.00 0.00 0.00 0.00 0.01 0.01 0.01 0.01 0.01 0.01 0.02 0.02 0.02 0.03 0.04 0.03 0.02 0.02 0.02 0.02 0.02 0.03 0.05 0.05
0.01 0.01 0.00 0.00 0.00 0.00 0.00 0.01 0.01 0.01 0.01 0.01 0.00 0.01 0.00 0.01 0.00 0.00 0.01 0.01 0.01 0.00 0.00 0.00 0.01 0.01 0.01 0.01 0.01 0.02 0.02 0.02 0.02 0.03 0.04 0.05 0.04 0.02 0.02 0.02 0.02 0.02 0.03 0.03
0.00 0.00 0.00 0.00 0.00 0.00 0.00 0.01 0.01 0.01 0.01 0.00 0.00 0.00 0.01 0.01 0.00 0.01 0.01 0.01 0.01 0.01 0.00 0.00 0.01 0.01 0.01 0.01 0.01 0.00 0.01 0.01 0.01 0.02 0.02 0.03 0.03 0.03 0.03 0.03 0.03 0.03 0.03 0.04
0.00 0.00 0.00 0.00 0.00 0.00 0.00 0.01 0.01 0.01 0.00 0.00 0.00 0.00 0.01 0.01 0.01 0.01 0.01 0.01 0.01 0.01 0.01 0.01 0.00 0.00 0.00 0.00 0.00 0.00 0.00 0.00 0.00 0.01 0.01 0.01 0.02 0.02 0.03 0.03 0.03 0.03 0.03 0.03
0.00 0.00 0.00 0.00 0.00 0.00 0.00 0.00 0.01 0.00 0.00 0.00 0.00 0.00 0.01 0.01 0.01 0.01 0.01 0.01 0.01 0.00 0.01 0.01 0.00 0.00 0.00 0.00 0.00 0.00 0.00 0.00 0.01 0.01 0.01 0.01 0.01 0.01 0.02 0.02 0.02 0.02 0.02 0.02
0.00 0.00 0.00 0.00 0.00 0.00 0.00 0.00 0.00 0.00 0.00 0.00 0.00 0.00 0.01 0.01 0.01 0.01 0.02 0.01 0.01 0.01 0.01 0.01 0.00 0.00 0.00 0.00 0.00 0.00 0.00 0.00 0.01 0.01 0.01 0.01 0.01 0.01 0.02 0.02 0.02 0.03 0.03 0.03
0.00 0.00 0.00 0.00 0.00 0.00 0.00 0.01 0.01 0.01 0.00 0.00 0.00 0.00 0.00 0.01 0.01 0.01 0.01 0.02 0.01 0.01 0.01 0.01 0.00 0.00 0.00 0.00 0.00 0.00 0.00 0.01 0.01 0.01 0.01 0.01 0.01 0.01 0.02 0.02 0.02 0.03 0.04 0.04
0.00 0.00 0.00 0.00 0.00 0.00 0.01 0.01 0.01 0.01 0.01 0.01 0.01 0.00 0.01 0.01 0.01 0.01 0.01 0.01 0.01 0.01 0.01 0.01 0.00 0.00 0.00 0.00 0.00 0.00 0.00 0.01 0.01 0.02 0.01 0.02 0.02 0.03 0.02 0.02 0.02 0.03 0.04 0.04
0.00 0.00 0.00 0.00 0.00 0.00 0.00 0.01 0.01 0.01 0.01 0.01 0.02 0.02 0.01 0.01 0.01 0.01 0.01 0.01 0.01 0.01 0.00 0.01 0.01 0.01 0.01 0.01 0.01 0.01 0.01 0.01 0.01 0.01 0.01 0.02 0.03 0.04 0.04 0.04 0.03 0.03 0.04 0.04
0.00 0.00 0.00 0.00 0.01 0.01 0.01 0.00 0.01 0.01 0.01 0.01 0.01 0.01 0.02 0.02 0.02 0.01 0.01 0.01 0.01 0.01 0.01 0.01 0.01 0.01 0.01 0.01 0.01 0.01 0.01 0.01 0.01 0.02 0.01 0.02 0.03 0.04 0.04 0.05 0.05 0.04 0.04 0.03
0.00 0.00 0.01 0.02 0.03 0.03 0.02 0.01 0.01 0.01 0.01 0.01 0.01 0.01 0.01 0.01 0.01 0.01 0.01 0.01 0.01 0.01 0.01 0.01 0.01 0.01 0.01 0.01 0.01 0.01 0.01 0.01 0.01 0.01 0.01 0.02 0.02 0.03 0.04 0.04 0.04 0.04 0.03 0.02
0.01 0.02 0.02 0.02 0.02 0.02 0.01 0.01 0.01 0.01 0.01 0.01 0.01 0.01 0.01 0.01 0.01 0.01 0.01 0.01 0.01 0.01 0.01 0.01 0.01 0.01 0.01 0.01 0.01 0.01 0.01 0.01 0.01 0.01 0.01 0.01 0.01 0.02 0.03 0.04 0.03 0.03 0.02 0.01
0.01 0.02 0.01 0.01 0.01 0.01 0.01 0.01 0.00 0.00 0.01 0.01 0.01 0.00 0.01 0.01 0.01 0.00 0.00 0.00 0.01 0.01 0.01 0.01 0.01 0.01 0.01 0.01 0.01 0.01 0.01 0.01 0.01 0.01 0.01 0.01 0.01 0.01 0.02 0.02 0.03 0.02 0.02 0.01
0.01 0.01 0.01 0.01 0.01 0.01 0.01 0.01 0.01 0.01 0.01 0.01 0.01 0.01 0.01 0.01 0.01 0.01 0.01 0.00 0.00 0.01 0.01 0.01 0.02 0.02 0.01 0.01 0.00 0.01 0.01 0.01 0.01 0.01 0.01 0.01 0.01 0.01 0.01 0.01 0.02 0.03 0.03 0.02
0.02 0.02 0.02 0.02 0.01 0.01 0.01 0.00 0.01 0.01 0.01 0.01 0.01 0.01 0.01 0.01 0.01 0.00 0.01 0.00 0.01 0.01 0.01 0.01 0.01 0.01 0.01 0.01 0.01 0.01 0.02 0.02 0.02 0.02 0.02 0.02 0.01 0.01 0.01 0.01 0.02 0.02 0.02 0.02
0.03 0.03 0.03 0.02 0.02 0.01 0.01 0.01 0.01 0.01 0.01 0.01 0.01 0.01 0.01 0.01 0.01 0.01 0.00 0.00 0.01 0.01 0.01 0.02 0.02 0.01 0.01 0.01 0.01 0.01 0.02 0.03 0.03 0.03 0.02 0.02 0.02 0.02 0.02 0.01 0.01 0.02 0.02 0.02
0.03 0.03 0.03 0.02 0.02 0.01 0.01 0.01 0.01 0.01 0.02 0.02 0.01 0.01 0.01 0.01 0.01 0.01 0.00 0.00 0.01 0.01 0.01 0.02 0.02 0.02 0.01 0.01 0.01 0.02 0.02 0.02 0.02 0.02 0.02 0.01 0.01 0.02 0.02 0.01 0.01 0.01 0.02 0.02
0.02 0.03 0.03 0.02 0.02 0.01 0.01 0.01 0.02 0.02 0.02 0.02 0.02 0.01 0.01 0.01 0.01 0.01 0.01 0.01 0.01 0.01 0.01 0.01 0.02 0.02 0.02 0.02 0.02 0.02 0.02 0.02 0.02 0.02 0.02 0.01 0.01 0.01 0.01 0.01 0.01 0.01 0.01 0.01
MSLP
1018.38 1018.75 1019.11 1019.45 1019.73 1019.93 1019.99 1019.91 1019.66 1019.27 1018.78 1018.25 1017.74 1017.31 1017.02 1016.88 1016.91 1017.07 1017.33 1017.65 1017.99 1018.30 1018.57 1018.81 1019.01 1019.20 1019.41 1019.65 1019.94 1020.26 1020.62 1020.99 1021.35 1021.69 1021.99 1022.26 1022.49 1022.69 1022.87 1023.04 1023.22 1023.39 1023.56 1023.73
1018.58 1018.85 1019.05 1019.20 1019.27 1019.26 1019.16 1018.96 1018.67 1018.32 1017.92 1017.53 1017.18 1016.90 1016.73 1016.67 1016.71 1016.83 1017.01 1017.23 1017.45 1017.67 1017.87 1018.08 1018.29 1018.52 1018.79 1019.11 1019.48 1019.87 1020.28 1020.69 1021.07 1021.43 1021.74 1022.02 1022.27 1022.49 1022.70 1022.89 1023.08 1023.26 1023.44 1023.60
1018.90 1019.04 1019.07 1019.01 1018.88 1018.67 1018.41 1018.11 1017.79 1017.46 1017.15 1016.88 1016.66 1016.50 1016.42 1016.39 1016.43 1016.50 1016.59 1016.70 1016.81 1016.94 1017.08 1017.26 1017.49 1017.77 1018.11 1018.50 1018.94 1019.40 1019.85 1020.29 1020.70 1021.07 1021.39 1021.68 1021.94 1022.18 1022.41 1022.63 1022.84 1023.04 1023.22 1023.37
1019.25 1019.24 1019.10 1018.85 1018.51 1018.14 1017.75 1017.37 1017.03 1016.73 1016.49 1016.32 1016.20 1016.13 1016.11 1016.10 1016.11 1016.12 1016.13 1016.13 1016.16 1016.21 1016.31 1016.47 1016.71 1017.04 1017.44 1017.89 1018.39 1018.89 1019.38 1019.84 1020.25 1020.62 1020.94 1021.23 1021.51 1021.77 1022.02 1022.27 1022.51 1022.73 1022.91 1023.07
1019.50 1019.32 1019.01 1018.59 1018.10 1017.60 1017.13 1016.71 1016.36 1016.10 1015.94 1015.84 1015.81 1015.81 1015.82 1015.82 1015.80 1015.76 1015.69 1015.62 1015.57 1015.57 1015.64 1015.80 1016.06 1016.41 1016.85 1017.35 1017.87 1018.40 1018.90 1019.35 1019.75 1020.10 1020.42 1020.71 1020.98 1021.26 1021.54 1021.82 1022.08 1022.32 1022.52 1022.68
1019.48 1019.15 1018.68 1018.13 1017.54 1016.97 1016.46 1016.04 1015.73 1015.53 1015.44 1015.42 1015.46 1015.52 1015.56 1015.57 1015.53 1015.45 1015.33 1015.21 1015.12 1015.09 1015.14 1015.30 1015.57 1015.94 1016.40 1016.91 1017.43 1017.95 1018.42 1018.85 1019.22 1019.54 1019.83 1020.11 1020.39 1020.68 1020.98 1021.28 1021.57 1021.83 1022.04 1022.20
1019.08 1018.62 1018.04 1017.40 1016.77 1016.18 1015.69 1015.32 1015.07 1014.96 1014.95 1015.02 1015.13 1015.24 1015.31 1015.34 1015.30 1015.20 1015.07 1014.93 1014.83 1014.79 1014.85 1015.01 1015.28 1015.65 1016.10 1016.59 1017.08 1017.55 1017.98 1018.35 1018.68 1018.96 1019.22 1019.48 1019.75 1020.05 1020.36 1020.67 1020.98 1021.25 1021.47 1021.62
1018.27 1017.70 1017.06 1016.40 1015.77 1015.23 1014.81 1014.52 1014.37 1014.36 1014.44 1014.59 1014.77 1014.93 1015.05 1015.10 1015.08 1015.01 1014.89 1014.78 1014.69 1014.67 1014.73 1014.90 1015.17 1015.52 1015.93 1016.37 1016.81 1017.21 1017.57 1017.88 1018.15 1018.38 1018.60 1018.84 1019.09 1019.38 1019.69 1020.00 1020.31 1020.58 1020.79 1020.94
1017.08 1016.46 1015.81 1015.18 1014.62 1014.17 1013.85 1013.68 1013.64 1013.73 1013.90 1014.13 1014.37 1014.58 1014.75 1014.84 1014.87 1014.84 1014.77 1014.70 1014.66 1014.67 1014.76 1014.94 1015.19 1015.51 1015.87 1016.24 1016.60 1016.93 1017.21 1017.45 1017.65 1017.84 1018.02 1018.23 1018.46 1018.73 1019.02 1019.32 1019.60 1019.85 1020.04 1020.16
1015.66 1015.03 1014.42 1013.88 1013.43 1013.10 1012.91 1012.86 1012.93 1013.11 1013.36 1013.64 1013.93 1014.19 1014.40 1014.55 1014.63 1014.67 1014.68 1014.68 1014.70 1014.76 1014.88 1015.07 1015.30 1015.58 1015.88 1016.18 1016.45 1016.70 1016.90 1017.08 1017.23 1017.37 1017.52 1017.70 1017.91 1018.14 1018.40 1018.66 1018.90 1019.10 1019.25 1019.33
1014.19 1013.60 1013.08 1012.65 1012.33 1012.14 1012.08 1012.14 1012.30 1012.54 1012.84 1013.16 1013.48 1013.76 1014.01 1014.21 1014.36 1014.48 1014.57 1014.66 1014.76 1014.89 1015.05 1015.24 1015.46 1015.69 1015.93 1016.15 1016.35 1016.53 1016.67 1016.79 1016.91 1017.02 1017.15 1017.31 1017.49 1017.69 1017.90 1018.10 1018.28 1018.41 1018.50 1018.53
1012.83 1012.33 1011.93 1011.63 1011.45 1011.39 1011.44 1011.58 1011.80 1012.08 1012.38 1012.70 1013.02 1013.32 1013.59 1013.83 1014.06 1014.26 1014.44 1014.63 1014.82 1015.01 1015.22 1015.42 1015.63 1015.83 1016.02 1016.18 1016.32 1016.44 1016.54 1016.64 1016.74 1016.84 1016.97 1017.11 1017.26 1017.43 1017.58 1017.71 1017.82 1017.88 1017.89 1017.86
1011.69 1011.31 1011.04 1010.88 1010.83 1010.88 1011.01 1011.21 1011.44 1011.71 1011.99 1012.28 1012.57 1012.86 1013.15 1013.43 1013.72 1014.01 1014.30 1014.58 1014.86 1015.13 1015.39 1015.62 1015.82 1016.00 1016.15 1016.27 1016.37 1016.46 1016.54 1016.63 1016.74 1016.85 1016.98 1017.12 1017.26 1017.39 1017.49 1017.56 1017.58 1017.56 1017.49 1017.39
1010.79 1010.53 1010.40 1010.37 1010.44 1010.57 1010.75 1010.96 1011.18 1011.41 1011.64 1011.88 1012.13 1012.40 1012.69 1013.02 1013.37 1013.74 1014.13 1014.52 1014.90 1015.25 1015.55 1015.82 1016.03 1016.20 1016.33 1016.42 1016.51 1016.59 1016.68 1016.78 1016.91 1017.05 1017.21 1017.35 1017.49 1017.59 1017.64 1017.64 1017.59 1017.50 1017.36 1017.20
1010.06 1009.93 1009.92 1010.01 1010.16 1010.35 1010.56 1010.76 1010.95 1011.12 1011.29 1011.47 1011.67 1011.92 1012.23 1012.59 1013.01 1013.47 1013.96 1014.46 1014.93 1015.35 1015.72 1016.03 1016.26 1016.44 1016.56 1016.65 1016.74 1016.83 1016.94 1017.08 1017.24 1017.42 1017.60 1017.77 1017.90 1017.98 1018.01 1017.96 1017.85 1017.69 1017.50 1017.30
1009.40 1009.38 1009.48 1009.66 1009.88 1010.11 1010.33 1010.51 1010.65 1010.77 1010.88 1011.01 1011.19 1011.43 1011.75 1012.16 1012.65 1013.21 1013.79 1014.39 1014.95 1015.46 1015.90 1016.25 1016.52 1016.71 1016.85 1016.95 1017.05 1017.16 1017.30 1017.48 1017.68 1017.90 1018.11 1018.30 1018.45 1018.52 1018.52 1018.44 1018.30 1018.10 1017.87 1017.63
1008.71 1008.79 1008.98 1009.22 1009.50 1009.75 1009.97 1010.13 1010.24 1010.32 1010.40 1010.50 1010.66 1010.92 1011.27 1011.74 1012.31 1012.95 1013.63 1014.32 1014.97 1015.56 1016.06 1016.47 1016.77 1017.00 1017.16 1017.29 1017.41 1017.55 1017.73 1017.93 1018.17 1018.42 1018.67 1018.88 1019.03 1019.11 1019.10 1019.01 1018.84 1018.62 1018.37 1018.12
1007.95 1008.10 1008.35 1008.65 1008.96 1009.24 1009.46 1009.62 1009.71 1009.78 1009.85 1009.95 1010.13 1010.41 1010.82 1011.35 1011.99 1012.71 1013.48 1014.25 1014.99 1015.65 1016.22 1016.67 1017.02 1017.29 1017.48 1017.64 1017.79 1017.96 1018.16 1018.40 1018.66 1018.93 1019.20 1019.42 1019.58 1019.66 1019.64 1019.55 1019.38 1019.16 1018.90 1018.65
1007.14 1007.34 1007.64 1007.98 1008.31 1008.61 1008.84 1009.01 1009.12 1009.20 1009.28 1009.42 1009.63 1009.97 1010.43 1011.02 1011.73 1012.52 1013.36 1014.20 1015.00 1015.72 1016.34 1016.85 1017.25 1017.55 1017.78 1017.97 1018.15 1018.35 1018.57 1018.82 1019.09 1019.37 1019.64 1019.86 1020.02 1020.09 1020.08 1019.99 1019.82 1019.60 1019.36 1019.12
1006.39 1006.63 1006.94 1007.30 1007.66 1007.97 1008.23 1008.42 1008.56 1008.68 1008.81 1008.99 1009.26 1009.65 1010.17 1010.81 1011.57 1012.42 1013.30 1014.19 1015.03 1015.79 1016.45 1017.00 1017.43 1017.77 1018.04 1018.27 1018.47 1018.69 1018.92 1019.17 1019.44 1019.72 1019.97 1020.17 1020.31 1020.38 1020.37 1020.27 1020.11 1019.90 1019.67 1019.43
1005.84 1006.08 1006.41 1006.78 1007.15 1007.48 1007.76 1007.99 1008.17 1008.34 1008.53 1008.77 1009.10 1009.54 1010.10 1010.78 1011.57 1012.43 1013.33 1014.23 1015.09 1015.87 1016.55 1017.13 1017.60 1017.97 1018.27 1018.52 1018.75 1018.98 1019.22 1019.46 1019.72 1019.96 1020.18 1020.36 1020.48 1020.52 1020.49 1020.39 1020.23 1020.03 1019.80 1019.55
1005.59 1005.84 1006.16 1006.53 1006.90 1007.25 1007.56 1007.82 1008.06 1008.29 1008.53 1008.83 1009.21 1009.69 1010.27 1010.97 1011.76 1012.61 1013.49 1014.38 1015.22 1015.99 1016.68 1017.26 1017.75 1018.15 1018.48 1018.76 1019.01 1019.24 1019.47 1019.70 1019.93 1020.13 1020.31 1020.45 1020.53 1020.54 1020.49 1020.37 1020.21 1020.00 1019.76 1019.50
1005.72 1005.95 1006.27 1006.62 1007.00 1007.35 1007.69 1007.99 1008.28 1008.56 1008.86 1009.21 1009.62 1010.12 1010.71 1011.40 1012.16 1012.97 1013.82 1014.65 1015.46 1016.20 1016.87 1017.44 1017.94 1018.35 1018.70 1018.99 1019.25 1019.48 1019.70 1019.90 1020.09 1020.26 1020.39 1020.47 1020.50 1020.48 1020.39 1020.26 1020.07 1019.84 1019.59 1019.31
1006.20 1006.42 1006.72 1007.06 1007.42 1007.79 1008.15 1008.49 1008.81 1009.14 1009.49 1009.88 1010.32 1010.83 1011.41 1012.06 1012.78 1013.53 1014.31 1015.08 1015.82 1016.51 1017.14 1017.69 1018.17 1018.59 1018.94 1019.23 1019.49 1019.72 1019.92 1020.09 1020.24 1020.35 1020.43 1020.46 1020.44 1020.37 1020.25 1020.08 1019.87 1019.62 1019.34 1019.03
1006.95 1007.16 1007.43 1007.76 1008.12 1008.49 1008.86 1009.24 1009.60 1009.98 1010.37 1010.79 1011.25 1011.75 1012.32 1012.93 1013.58 1014.27 1014.96 1015.65 1016.32 1016.94 1017.52 1018.03 1018.49 1018.88 1019.22 1019.51 1019.75 1019.96 1020.13 1020.27 1020.37 1020.44 1020.46 1020.43 1020.36 1020.25 1020.09 1019.89 1019.65 1019.38 1019.07 1018.72
1007.84 1008.03 1008.29 1008.61 1008.96 1009.34 1009.73 1010.13 1010.54 1010.96 1011.38 1011.83 1012.31 1012.82 1013.36 1013.93 1014.53 1015.14 1015.75 1016.36 1016.94 1017.49 1018.00 1018.46 1018.87 1019.23 1019.54 1019.81 1020.03 1020.20 1020.34 1020.44 1020.49 1020.50 1020.47 1020.39 1020.28 1020.12 1019.92 1019.69 1019.43 1019.13 1018.79 1018.41
1008.73 1008.92 1009.17 1009.48 1009.83 1010.22 1010.63 1011.06 1011.51 1011.97 1012.44 1012.92 1013.42 1013.93 1014.46 1014.99 1015.54 1016.09 1016.63 1017.15 1017.66 1018.13 1018.57 1018.96 1019.32 1019.63 1019.90 1020.12 1020.30 1020.44 1020.53 1020.58 1020.58 1020.54 1020.46 1020.34 1020.18 1019.98 1019.75 1019.49 1019.21 1018.88 1018.53 1018.12
Thickness
5654 5661 5661 5662 5662 5659 5655 5652 5646 5655 5659 5670 5675 5679 5683 5685 5686 5687 5688 5689 5689 5689 5689 5688 5687 5687 5687 5685 5683 5681 5678 5675 5673 5671 5669 5667 5665 5664 5663 5661 5660 5658 5657 5656
5646 5653 5655 5655 5659 5658 5657 5656 5654 5656 5659 5670 5674 5675 5676 5678 5679 5679 5681 5683 5685 5685 5685 5685 5685 5685 5684 5682 5681 5678 5675 5672 5670 5667 5665 5663 5661 5660 5658 5657 5655 5654 5652 5651
5630 5641 5644 5641 5655 5655 5655 5656 5655 5651 5659 5666 5666 5667 5669 5672 5673 5674 5676 5679 5679 5680 5681 5683 5684 5683 5682 5681 5678 5674 5672 5669 5666 5664 5661 5659 5658 5655 5653 5651 5650 5649 5647 5646
5619 5627 5622 5646 5661 5660 5655 5654 5654 5655 5658 5660 5662 5665 5668 5670 5670 5670 5672 5674 5675 5677 5678 5680 5681 5680 5679 5677 5674 5670 5667 5665 5663 5660 5657 5655 5653 5651 5649 5647 5645 5644 5642 5642
5608 5611 5623 5642 5654 5653 5648 5646 5651 5651 5653 5654 5656 5659 5660 5667 5667 5668 5670 5671 5673 5674 5676 5676 5676 5675 5673 5671 5669 5666 5663 5661 5659 5657 5653 5650 5648 5646 5645 5642 5640 5639 5638 5637
5603 5607 5611 5636 5650 5654 5648 5636 5649 5649 5648 5647 5648 5641 5650 5662 5663 5664 5666 5668 5669 5671 5671 5671 5672 5671 5668 5665 5663 5662 5661 5659 5656 5654 5651 5648 5646 5643 5641 5639 5637 5635 5633 5632
5599 5601 5614 5635 5644 5646 5627 5631 5645 5646 5645 5643 5641 5644 5652 5657 5658 5660 5662 5664 5665 5665 5665 5667 5667 5666 5663 5661 5659 5660 5658 5656 5653 5650 5647 5645 5642 5640 5637 5634 5632 5630 5628 5627
5594 5595 5609 5634 5633 5629 5630 5639 5642 5642 5642 5641 5642 5645 5647 5650 5652 5655 5656 5659 5660 5659 5660 5661 5662 5661 5659 5657 5658 5655 5653 5651 5648 5645 5643 5641 5637 5634 5632 5629 5626 5624 5622 5622
5602 5610 5621 5627 5628 5632 5633 5633 5635 5636 5638 5638 5638 5639 5641 5643 5646 5649 5651 5652 5653 5654 5654 5654 5655 5656 5654 5654 5652 5649 5647 5645 5642 5640 5638 5636 5633 5629 5626 5624 5622 5620 5618 5617
5599 5609 5617 5621 5624 5627 5628 5629 5631 5632 5633 5633 5632 5634 5635 5637 5640 5642 5645 5645 5647 5647 5647 5647 5649 5649 5650 5648 5646 5643 5640 5638 5636 5634 5632 5630 5628 5626 5623 5620 5618 5616 5614 5613
5593 5603 5609 5615 5617 5620 5622 5624 5625 5627 5627 5627 5628 5629 5630 5632 5634 5636 5638 5639 5640 5640 5641 5641 5642 5642 5642 5642 5640 5637 5634 5632 5630 5629 5627 5624 5622 5621 5620 5619 5618 5616 5614 5613
5591 5600 5599 5605 5611 5614 5614 5616 5618 5619 5620 5622 5622 5623 5625 5626 5628 5629 5630 5631 5632 5633 5634 5634 5635 5635 5635 5635 5634 5631 5628 5625 5624 5622 5620 5619 5617 5615 5615 5615 5615 5614 5614 5612
5594 5599 5598 5602 5605 5607 5608 5610 5612 5613 5615 5616 5617 5618 5620 5620 5621 5622 5623 5624 5625 5626 5627 5628 5628 5628 5628 5629 5628 5626 5623 5620 5618 5617 5615 5613 5611 5610 5608 5608 5608 5608 5608 5607
5591 5591 5591 5595 5597 5600 5602 5604 5606 5607 5608 5611 5611 5612 5613 5614 5615 5615 5616 5617 5619 5619 5620 5620 5621 5621 5622 5622 5620 5619 5617 5615 5613 5611 5610 5608 5607 5606 5604 5603 5601 5600 5602 5601
5584 5585 5586 5589 5591 5592 5594 5596 5597 5599 5601 5603 5605 5606 5607 5607 5608 5609 5609 5610 5610 5611 5612 5613 5614 5615 5616 5615 5613 5612 5610 5608 5607 5605 5604 5603 5602 5601 5599 5598 5597 5596 5595 5594
5578 5578 5579 5581 5582 5584 5585 5587 5588 5592 5595 5597 5598 5599 5600 5601 5602 5602 5603 5603 5602 5603 5605 5606 5607 5609 5609 5608 5607 5605 5604 5604 5602 5599 5597 5596 5595 5594 5593 5592 5591 5590 5589 5588
5568 5570 5571 5572 5574 5576 5578 5580 5583 5585 5588 5590 5592 5593 5594 5594 5594 5594 5596 5597 5597 5597 5598 5599 5601 5602 5603 5602 5601 5599 5597 5596 5595 5593 5591 5590 5590 5589 5588 5587 5586 5585 5584 5583
5567 5568 5568 5568 5568 5570 5572 5574 5577 5579 5581 5584 5585 5586 5586 5587 5588 5588 5589 5590 5590 5591 5592 5594 5595 5596 5596 5596 5595 5593 5591 5589 5588 5586 5585 5584 5583 5583 5582 5581 5580 5578 5576 5575
5561 5562 5563 5563 5564 5565 5566 5568 5571 5573 5575 5577 5578 5578 5579 5580 5581 5581 5581 5582 5583 5583 5586 5588 5589 5589 5589 5589 5589 5587 5585 5583 5582 5580 5578 5577 5576 5575 5574 5573 5572 5571 5569 5567
5555 5556 5556 5557 5559 5560 5561 5563 5565 5566 5568 5569 5570 5570 5571 5572 5573 5573 5573 5575 5578 5580 5582 5582 5583 5583 5583 5583 5583 5581 5579 5577 5575 5573 5571 5569 5568 5567 5566 5566 5564 5562 5561 5559
5547 5548 5549 5550 5552 5553 5555 5557 5559 5560 5561 5562 5562 5563 5564 5564 5565 5566 5566 5568 5572 5573 5575 5576 5576 5577 5577 5577 5576 5574 5573 5571 5569 5567 5565 5563 5562 5561 5559 5558 5557 5555 5554 5552
5539 5540 5542 5543 5544 5546 5548 5550 5552 5553 5554 5555 5556 5556 5556 5556 5557 5559 5561 5563 5566 5567 5568 5569 5569 5571 5570 5570 5568 5567 5566 5565 5563 5560 5559 5557 5555 5554 5552 5551 5549 5548 5547 5545
5531 5532 5534 5536 5537 5538 5541 5543 5544 5545 5546 5547 5548 5548 5548 5549 5551 5552 5554 5557 5558 5560 5561 5562 5563 5564 5563 5562 5561 5560 5558 5557 5556 5554 5552 5550 5549 5547 5545 5544 5543 5541 5539 5537
5524 5525 5527 5528 5529 5531 5532 5535 5536 5537 5538 5539 5540 5541 5541 5542 5544 5546 5548 5550 5552 5553 5553 5554 5555 5555 5554 5553 5552 5551 5550 5549 5548 5547 5545 5543 5541 5540 5538 5536 5535 5533 5532 5530
5515 5516 5518 5519 5520 5522 5524 5526 5527 5529 5529 5531 5531 5533 5534 5535 5537 5538 5540 5541 5543 5544 5543 5545 5546 5546 5544 5544 5544 5543 5542 5542 5541 5539 5537 5535 5533 5532 5530 5529 5527 5526 5524 5523
5507 5508 5510 5511 5512 5513 5515 5516 5517 5519 5520 5521 5522 5523 5525 5526 5528 5529 5530 5532 5533 5534 5534 5534 5535 5535 5535 5535 5535 5535 5534 5534 5532 5531 5530 5528 5526 5524 5523 5521 5520 5518 5516 5514
5498 5499 5500 5502 5504 5505 5507 5508 5509 5510 5512 5512 5513 5514 5515 5516 5518 5519 5521 5522 5523 5524 5524 5524 5525 5525 5526 5526 5526 5526 5526 5525 5524 5523 5521 5520 5518 5516 5515 5513 5511 5509 5507 5505